When you browse on this site, cookies collect data to enhance your experience and personalize the content and advertising you see.
Visit our Privacy Policy to learn more. By continuing to use the site, you agree to this use of cookies and data.
  • en Suisse
  • Liste des pays
  • À 7 jours
  • Température de l'eau
  • Carte météo
  • Widgets météo
  • user-avatar
    Se connecter

    Météo par heure à Hajfong

    Ce jour, 25 Mai, Lundi

    Heure Température Précipitation Vent Pression Humidité
    00:00 +29°C° 0 mm 2 m/s 754 mmHg 88%
    01:00 +29°C° 0 mm 3 m/s 754 mmHg 88%
    02:00 +29°C° 0.1 mm 3 m/s 753 mmHg 88%
    03:00 +29°C° 0.1 mm 3 m/s 753 mmHg 88%
    04:00 +29°C° 0.1 mm 4 m/s 753 mmHg 88%
    05:00 +30°C° 0.1 mm 4 m/s 753 mmHg 87%
    06:00 +30°C° 0.1 mm 4 m/s 753 mmHg 87%
    07:00 +30°C° 0.1 mm 4 m/s 754 mmHg 86%
    08:00 +33°C° 0 mm 4 m/s 754 mmHg 80%
    09:00 +34°C° 0 mm 4 m/s 754 mmHg 74%
    10:00 +35°C° 0 mm 4 m/s 754 mmHg 68%
    11:00 +36°C° 0 mm 4 m/s 753 mmHg 65%
    12:00 +37°C° 0 mm 3 m/s 753 mmHg 61%
    13:00 +37°C° 0 mm 3 m/s 752 mmHg 57%
    14:00 +37°C° 0 mm 3 m/s 752 mmHg 58%
    15:00 +37°C° 0 mm 3 m/s 751 mmHg 60%
    16:00 +36°C° 0 mm 3 m/s 750 mmHg 61%
    17:00 +35°C° 0 mm 3 m/s 751 mmHg 68%
    18:00 +33°C° 0 mm 3 m/s 751 mmHg 74%
    19:00 +31°C° 0 mm 3 m/s 751 mmHg 81%
    20:00 +31°C° 0.3 mm 3 m/s 752 mmHg 82%
    21:00 +30°C° 0.3 mm 3 m/s 753 mmHg 84%
    22:00 +30°C° 0.3 mm 2 m/s 753 mmHg 86%
    23:00 +30°C° 0.1 mm 2 m/s 753 mmHg 86%

    Demain, 26 Mai, Mardi

    Heure Température Précipitation Vent Pression Humidité
    00:00 +30°C° 0.1 mm 2 m/s 753 mmHg 86%
    01:00 +30°C° 0.1 mm 2 m/s 753 mmHg 87%
    02:00 +29°C° 0.1 mm 3 m/s 753 mmHg 87%
    03:00 +29°C° 0.1 mm 3 m/s 753 mmHg 87%
    04:00 +29°C° 0.1 mm 3 m/s 753 mmHg 87%
    05:00 +29°C° 0.6 mm 3 m/s 753 mmHg 86%
    06:00 +29°C° 0.6 mm 3 m/s 754 mmHg 84%
    07:00 +29°C° 0.6 mm 3 m/s 754 mmHg 82%
    08:00 +31°C° 0 mm 3 m/s 755 mmHg 77%
    09:00 +33°C° 0 mm 3 m/s 755 mmHg 72%
    10:00 +34°C° 0 mm 3 m/s 756 mmHg 67%
    11:00 +34°C° 0 mm 3 m/s 755 mmHg 66%
    12:00 +34°C° 0 mm 3 m/s 755 mmHg 66%
    13:00 +34°C° 0 mm 2 m/s 754 mmHg 66%
    14:00 +34°C° 0 mm 3 m/s 754 mmHg 67%
    15:00 +34°C° 0 mm 3 m/s 753 mmHg 67%
    16:00 +34°C° 0 mm 3 m/s 753 mmHg 68%
    17:00 +33°C° 0.2 mm 3 m/s 753 mmHg 73%
    18:00 +31°C° 0.2 mm 3 m/s 754 mmHg 78%
    19:00 +30°C° 0.2 mm 3 m/s 754 mmHg 83%
    20:00 +29°C° 0.1 mm 3 m/s 755 mmHg 84%
    21:00 +29°C° 0.1 mm 2 m/s 755 mmHg 85%
    22:00 +29°C° 0.1 mm 2 m/s 756 mmHg 85%
    23:00 +29°C° 0 mm 1 m/s 756 mmHg 86%

    Après-demain, 27 Mai, Mercredi

    Heure Température Précipitation Vent Pression Humidité
    00:00 +29°C° 0 mm 1 m/s 756 mmHg 86%
    01:00 +27°C° 0 mm 0 m/s 755 mmHg 86%
    02:00 +28°C° 0.1 mm 1 m/s 755 mmHg 86%
    03:00 +28°C° 0.1 mm 1 m/s 755 mmHg 85%
    04:00 +28°C° 0.1 mm 1 m/s 755 mmHg 85%
    05:00 +28°C° 0.6 mm 2 m/s 756 mmHg 84%
    06:00 +28°C° 0.6 mm 2 m/s 756 mmHg 82%
    07:00 +28°C° 0.6 mm 2 m/s 757 mmHg 81%
    08:00 +30°C° 0.4 mm 2 m/s 757 mmHg 74%
    09:00 +32°C° 0.4 mm 2 m/s 757 mmHg 67%
    10:00 +33°C° 0.4 mm 1 m/s 757 mmHg 60%
    11:00 +33°C° 0.1 mm 1 m/s 757 mmHg 59%
    12:00 +34°C° 0.1 mm 1 m/s 756 mmHg 59%
    13:00 +35°C° 0.1 mm 2 m/s 756 mmHg 58%
    14:00 +35°C° 0.2 mm 2 m/s 755 mmHg 59%
    15:00 +35°C° 0.2 mm 2 m/s 755 mmHg 61%
    16:00 +33°C° 0.2 mm 1 m/s 754 mmHg 62%
    17:00 +32°C° 0 mm 2 m/s 754 mmHg 68%
    18:00 +31°C° 0 mm 2 m/s 755 mmHg 74%
    19:00 +30°C° 0 mm 3 m/s 755 mmHg 79%
    20:00 +29°C° 0 mm 3 m/s 756 mmHg 80%
    21:00 +29°C° 0 mm 2 m/s 756 mmHg 81%
    22:00 +29°C° 0 mm 2 m/s 757 mmHg 81%
    23:00 +29°C° 0 mm 2 m/s 756 mmHg 82%

    28 Mai, Jeudi

    Heure Température Précipitation Vent Pression Humidité
    00:00 +29°C° 0 mm 1 m/s 756 mmHg 82%
    01:00 +28°C° 0 mm 1 m/s 755 mmHg 82%
    02:00 +28°C° 0.6 mm 1 m/s 755 mmHg 83%
    03:00 +28°C° 0.6 mm 1 m/s 755 mmHg 83%
    04:00 +28°C° 0.6 mm 1 m/s 755 mmHg 84%
    05:00 +28°C° 0.6 mm 1 m/s 755 mmHg 84%
    06:00 +28°C° 0.6 mm 1 m/s 756 mmHg 84%
    07:00 +28°C° 0.6 mm 1 m/s 756 mmHg 84%
    08:00 +30°C° 0 mm 1 m/s 756 mmHg 77%
    09:00 +31°C° 0 mm 1 m/s 756 mmHg 71%
    10:00 +33°C° 0 mm 1 m/s 757 mmHg 64%
    11:00 +33°C° 0 mm 1 m/s 756 mmHg 62%
    12:00 +34°C° 0 mm 2 m/s 755 mmHg 60%
    13:00 +35°C° 0 mm 2 m/s 755 mmHg 58%
    14:00 +34°C° 0 mm 3 m/s 754 mmHg 59%
    15:00 +34°C° 0 mm 3 m/s 754 mmHg 59%
    16:00 +34°C° 0 mm 4 m/s 753 mmHg 60%
    17:00 +33°C° 0 mm 3 m/s 754 mmHg 65%
    18:00 +30°C° 0 mm 3 m/s 754 mmHg 70%
    19:00 +29°C° 0 mm 3 m/s 754 mmHg 75%
    20:00 +29°C° 0 mm 2 m/s 755 mmHg 77%
    21:00 +29°C° 0 mm 2 m/s 755 mmHg 79%
    22:00 +29°C° 0 mm 1 m/s 755 mmHg 81%
    23:00 +29°C° 0 mm 1 m/s 755 mmHg 81%

    29 Mai, Vendredi

    Heure Température Précipitation Vent Pression Humidité
    00:00 +29°C° 0 mm 1 m/s 755 mmHg 82%
    01:00 +29°C° 0 mm 1 m/s 755 mmHg 82%
    02:00 +28°C° 0 mm 1 m/s 755 mmHg 83%
    03:00 +28°C° 0 mm 1 m/s 754 mmHg 83%
    04:00 +28°C° 0 mm 1 m/s 754 mmHg 83%
    05:00 +29°C° 0 mm 1 m/s 755 mmHg 81%
    06:00 +29°C° 0 mm 1 m/s 755 mmHg 79%
    07:00 +30°C° 0 mm 1 m/s 755 mmHg 77%
    08:00 +31°C° 0 mm 2 m/s 755 mmHg 74%
    09:00 +33°C° 0 mm 3 m/s 755 mmHg 71%
    10:00 +34°C° 0 mm 3 m/s 755 mmHg 68%
    11:00 +34°C° 0 mm 4 m/s 754 mmHg 67%
    12:00 +35°C° 0 mm 4 m/s 754 mmHg 66%
    13:00 +35°C° 0 mm 5 m/s 753 mmHg 65%
    14:00 +35°C° 0 mm 5 m/s 753 mmHg 67%
    15:00 +35°C° 0 mm 4 m/s 752 mmHg 69%
    16:00 +34°C° 0 mm 4 m/s 752 mmHg 70%
    17:00 +33°C° 0 mm 4 m/s 752 mmHg 76%
    18:00 +31°C° 0 mm 3 m/s 752 mmHg 81%
    19:00 +30°C° 0 mm 3 m/s 752 mmHg 86%
    20:00 +30°C° 0 mm 3 m/s 753 mmHg 87%
    21:00 +30°C° 0 mm 3 m/s 753 mmHg 88%
    22:00 +30°C° 0 mm 3 m/s 754 mmHg 89%
    23:00 +30°C° 0 mm 3 m/s 753 mmHg 88%

    30 Mai, Samedi

    Heure Température Précipitation Vent Pression Humidité
    00:00 +30°C° 0 mm 3 m/s 753 mmHg 88%
    01:00 +30°C° 0 mm 3 m/s 753 mmHg 88%
    02:00 +30°C° 0.2 mm 3 m/s 753 mmHg 89%
    03:00 +30°C° 0.2 mm 4 m/s 752 mmHg 89%
    04:00 +30°C° 0.2 mm 4 m/s 752 mmHg 89%
    05:00 +30°C° 0.2 mm 4 m/s 752 mmHg 86%
    06:00 +31°C° 0.2 mm 3 m/s 753 mmHg 84%
    07:00 +31°C° 0.2 mm 3 m/s 753 mmHg 81%
    08:00 +34°C° 0 mm 3 m/s 753 mmHg 74%
    09:00 +35°C° 0 mm 3 m/s 753 mmHg 67%
    10:00 +37°C° 0 mm 3 m/s 753 mmHg 60%
    11:00 +37°C° 0.1 mm 3 m/s 752 mmHg 57%
    12:00 +38°C° 0.1 mm 4 m/s 752 mmHg 54%
    13:00 +40°C° 0.1 mm 4 m/s 751 mmHg 51%
    14:00 +38°C° 0.1 mm 4 m/s 751 mmHg 54%
    15:00 +37°C° 0.1 mm 4 m/s 750 mmHg 57%
    16:00 +37°C° 0.1 mm 4 m/s 750 mmHg 60%
    17:00 +35°C° 0 mm 4 m/s 750 mmHg 66%
    18:00 +34°C° 0 mm 4 m/s 750 mmHg 73%
    19:00 +32°C° 0 mm 4 m/s 751 mmHg 79%
    20:00 +31°C° 0 mm 3 m/s 751 mmHg 80%
    21:00 +31°C° 0 mm 3 m/s 752 mmHg 81%
    22:00 +31°C° 0 mm 3 m/s 752 mmHg 83%
    23:00 +31°C° 0.2 mm 3 m/s 752 mmHg 83%
    Voir plus